Regional Weather Roundup
Issued by NWS Cleveland, OH

Home | Current Version | Previous Version | Text Only | Print | Product List | Glossary Off
Versions: 1 2 3 4 5 6 7 8 9 10 11 12 13 14 15 16 17 18 19 20 21 22 23 24 25 26 27 28 29 30 31 32 33 34 35 36 37 38 39 40 41 42 43 44 45 46 47 48 49 50

000
ASUS41 KCLE 162310
RWRCLE
OHIO REGIONAL WEATHER ROUNDUP
NATIONAL WEATHER SERVICE CLEVELAND, OH
700 PM EDT TUE SEP 16 2014

NOTE: "FAIR" INDICATES FEW OR NO CLOUDS BELOW 12,000 FEET WITH NO
SIGNIFICANT WEATHER AND/OR OBSTRUCTIONS TO VISIBILITY.

OHZ001>008-015>018-024>027-034-035-043-044-170000-
   NORTHWEST OHIO

CITY           SKY/WX    TMP DP  RH WIND       PRES   REMARKS
DEFIANCE       CLEAR     65  44  46 CALM      30.10S
FINDLAY        PTCLDY    65  46  50 W10       30.09S
TOLEDO EXPRESS PTCLDY    61  48  62 S3        30.09S
TOLEDO EXEC    CLEAR     63  44  50 SW3       30.10S
LIMA           MOCLDY    63  48  58 W6        30.10F
$$

OHZ009>014-019>023-028>033-038-089-170000-
   NORTHEAST OHIO

CITY           SKY/WX    TMP DP  RH WIND       PRES   REMARKS
CLE-HOPKINS    PTCLDY    60  48  64 NW6       30.11S
CLE-LAKEFRONT  CLEAR     61  48  62 NW6       30.08F
CUY CO. ARPT   CLEAR     61  52  72 NW10      30.10S
LORAIN-ELYRIA  CLEAR     62  49  62 N5        30.10S
ASHTABULA      CLEAR     59  48  67 NW3       30.10R
AKRON-CANTON   PTCLDY    62  50  64 NW6       30.08S
WOOSTER        PTCLDY    61  51  70 N7        30.09S
MANSFIELD      PTCLDY    63  47  55 W6        30.10R
YOUNGSTOWN     PTCLDY    59  50  72 N9        30.08S
$$

OHZ042-051>053-060>062-070>072-077>081-170000-
  SOUTHWEST OHIO

CITY           SKY/WX    TMP DP  RH WIND       PRES   REMARKS
CINC-COVINGTON CLOUDY    60  50  69 NW5       30.11F
CINC-LUNKEN    CLOUDY    61  52  72 CALM      30.12S
HAMILTON       CLOUDY    61  53  75 N5        30.13S
DAYTON         CLOUDY    61  50  67 N3        30.12F
WRIGHT-PAT AFB CLOUDY    60  47  61 N2        30.11F
DAYTON GENERAL CLOUDY    59  51  75 N5        30.11F
WILMINGTON     CLOUDY    59  49  69 N7        30.11F
$$

OHZ036-037-039>041-045>050-054>059-063>069-073>076-082>088-170000-
  CENTRAL AND SOUTHEAST OHIO

CITY           SKY/WX    TMP DP  RH WIND       PRES   REMARKS
COLUMBUS       MOCLDY    64  47  53 W3        30.09F
OSU AIRPORT    CLOUDY    61  51  70 NW3       30.10S
BOLTON FIELD   MOCLDY    63  52  67 SW5       30.11F
RICKENBACK AFB CLOUDY    61  50  67 W7        30.09F
NEWARK         CLEAR     62  50  64 W6        30.09S
MARION         CLEAR     63  46  54 W6        30.10S
LANCASTER      CLEAR     62  50  64 W5        30.10S
ZANESVILLE     CLEAR     64  49  57 NW6       30.08S
NEW PHILLY     CLEAR     64  53  67 CALM      30.07F
$$


USA.gov is the U.S. government's official web portal to all federal, state and local government web resources and services.